Theta_e
305 297 294 295 297 297 301 303 305 303 304 301 299 298 297 298 298 295 295 296 295 294 296 297 297 297 298 300 301 302 299 300 300 301 302 304 305 306 306 307 311 314 316 322 323 324 324 326 327 328 328 327 328 329 330 330 330 330 330 330 329 331 332 332 331 332 332 329 329 330 330 330 331 330 331 330 331 333 334 334 335 335 334 334 334 333
302 297 297 300 302 302 303 305 304 303 302 300 298 297 295 296 297 297 295 294 296 294 296 293 294 296 297 299 301 301 298 299 300 301 302 302 303 305 306 307 308 310 315 317 316 318 322 323 325 326 327 325 325 326 328 328 329 330 331 330 330 331 332 332 332 332 332 333 332 330 330 331 331 331 329 329 331 332 333 333 334 335 335 335 335 333
295 294 300 302 304 304 304 303 303 302 301 301 299 298 295 294 295 294 294 294 295 294 295 294 293 295 297 299 301 301 300 301 302 302 303 303 304 303 303 305 307 307 308 309 311 314 317 321 323 324 326 326 327 327 328 329 330 329 329 330 331 332 332 332 333 333 332 333 334 333 333 332 332 334 334 333 333 334 334 335 336 336 336 335 335 334
291 296 302 304 302 300 299 301 301 301 301 299 298 296 296 296 294 295 293 293 294 294 294 294 292 294 297 298 299 301 301 301 303 303 303 303 303 303 304 305 306 306 308 308 308 309 312 316 320 322 324 325 326 326 327 328 328 329 329 330 331 332 332 332 332 331 334 334 335 335 335 335 334 332 333 334 335 336 335 335 336 336 336 336 335 336
294 299 305 303 301 300 297 299 299 298 297 299 300 299 298 292 296 297 293 293 293 293 293 293 293 295 297 296 298 301 302 300 301 300 300 301 303 304 306 304 305 304 307 309 309 308 308 310 314 318 322 324 325 326 327 327 328 328 329 330 331 331 332 332 331 332 333 334 333 334 334 335 334 335 332 332 332 333 333 333 334 333 335 335 335 336
296 301 303 300 300 300 298 296 298 300 297 296 298 300 300 297 294 292 293 293 293 292 293 292 290 292 299 297 298 301 299 298 300 299 300 302 302 302 300 301 303 305 306 306 307 309 309 308 310 313 318 321 323 324 326 328 328 329 329 330 331 331 332 332 333 333 332 332 331 331 329 326 327 326 326 327 328 330 330 330 332 332 333 334 334 335
297 296 301 299 299 299 299 298 299 301 299 295 296 299 301 298 297 294 292 294 292 289 291 292 289 289 295 294 296 296 296 297 300 299 300 302 303 302 301 302 303 303 303 305 305 306 306 307 308 309 312 316 319 322 326 327 328 328 329 329 330 330 331 332 332 333 331 331 331 330 329 329 327 326 327 330 331 331 331 331 331 332 333 334 334 334
293 294 298 299 298 298 297 296 299 301 299 296 301 299 298 297 296 296 294 294 292 292 294 290 292 286 287 294 299 298 295 297 298 300 300 300 301 301 301 302 302 303 303 305 305 305 306 306 307 307 309 312 315 319 323 325 326 327 327 328 329 330 330 331 332 332 331 329 330 330 330 329 328 328 328 330 331 332 331 331 331 332 332 333 334 333
296 294 297 296 297 297 296 300 300 301 300 299 298 299 297 298 298 296 296 293 291 289 288 290 292 286 287 293 295 295 294 295 297 299 301 301 302 302 303 303 303 303 304 304 306 306 306 306 306 306 307 310 312 316 319 321 323 325 327 327 328 328 329 329 330 330 330 329 329 329 329 328 328 330 330 330 331 330 331 330 330 331 332 332 332 333
294 299 300 300 299 296 300 301 301 301 298 294 298 301 299 298 296 296 294 291 288 286 284 289 291 286 287 295 296 294 293 295 297 300 301 302 303 304 304 304 303 302 303 304 303 304 306 307 307 307 306 306 308 312 315 318 321 323 325 326 326 327 328 329 329 329 329 329 328 328 328 327 328 328 329 330 330 330 330 329 329 330 330 331 330 331
293 296 301 301 299 300 298 299 302 302 298 297 299 297 296 295 294 292 292 289 286 282 285 291 290 289 284 293 296 295 295 297 298 299 301 302 304 303 303 303 305 302 301 301 302 303 303 303 302 303 303 304 306 309 311 314 318 320 322 324 324 326 327 328 328 328 327 327 328 328 328 328 328 328 328 327 328 329 328 327 328 328 329 330 330 329
294 296 298 298 296 298 300 295 298 298 296 298 295 294 293 290 291 290 286 289 284 283 287 290 288 290 283 290 295 299 296 296 299 300 300 301 302 303 304 302 299 297 298 299 299 300 301 301 302 301 300 301 303 305 307 312 315 317 320 322 323 324 325 327 327 327 327 326 327 328 328 328 328 328 327 326 326 326 326 327 327 328 328 327 328 328
290 293 294 295 297 299 298 297 295 295 295 295 293 293 289 283 286 282 284 280 281 283 286 286 286 286 285 292 295 295 297 298 297 298 301 302 302 303 303 301 299 299 298 299 301 302 304 303 305 305 303 303 302 303 304 308 312 315 318 320 321 322 325 326 326 326 326 326 326 327 327 328 328 328 328 327 326 327 326 327 327 325 325 325 324 324
288 293 292 294 296 298 301 294 290 289 291 292 290 290 287 282 282 282 283 285 285 285 285 286 288 284 291 294 298 298 300 301 301 299 300 300 299 300 301 301 299 301 299 300 302 302 304 305 305 305 304 303 303 303 304 306 309 313 315 318 319 321 324 325 325 325 325 325 326 327 327 327 328 328 328 328 327 327 326 327 327 326 325 324 323 323
283 284 289 291 291 298 299 300 296 294 291 292 296 295 291 289 286 282 285 281 283 285 284 286 286 286 288 292 292 295 297 296 297 297 299 299 299 300 300 299 298 298 299 299 299 300 301 303 303 304 305 305 305 304 304 306 307 310 312 315 317 319 322 323 323 324 324 324 325 326 327 327 328 328 328 328 328 328 326 327 327 327 326 326 325 325
290 289 289 295 294 297 296 300 300 297 293 295 297 297 291 290 294 288 287 288 284 284 283 282 286 291 293 296 297 298 297 296 296 296 296 296 297 298 297 298 300 302 302 302 299 300 301 302 302 303 303 304 304 304 305 305 306 308 310 313 315 317 319 321 321 322 323 324 325 325 326 327 327 327 328 328 328 327 328 327 327 326 326 327 327 326
291 288 290 292 293 295 297 296 298 300 286 292 291 287 292 295 293 285 284 284 284 285 285 288 286 290 295 296 299 300 296 296 296 295 294 295 298 298 299 302 300 300 301 301 301 301 302 302 301 301 302 304 303 303 303 305 307 308 310 312 313 315 317 319 320 322 323 323 324 324 325 326 326 326 326 326 327 327 328 327 327 326 326 327 326 322
290 285 288 291 289 293 292 298 297 300 298 294 287 292 295 297 295 290 285 282 284 283 285 284 285 288 288 287 297 293 295 297 298 298 297 298 297 296 301 304 304 303 302 301 301 301 301 301 301 302 300 299 301 302 301 300 302 305 309 312 313 314 315 317 318 319 321 321 322 323 323 324 325 326 326 326 326 327 325 325 325 326 324 323 322 318
294 284 287 288 291 293 293 296 294 296 295 296 294 300 293 287 285 288 286 278 280 279 282 285 284 285 289 291 294 293 292 295 297 300 297 296 297 298 301 302 302 300 299 300 300 302 302 302 302 302 302 301 299 297 298 299 300 301 302 304 307 312 315 317 317 317 318 320 321 321 322 322 323 324 325 325 326 326 324 321 322 322 321 320 316 314
297 286 284 290 290 291 292 294 286 291 294 294 295 294 296 292 290 285 287 287 287 283 282 283 282 286 290 292 295 296 296 298 298 298 299 299 300 299 300 302 302 301 301 300 300 301 302 303 303 303 303 303 301 300 300 300 301 301 301 301 303 305 307 309 312 312 312 315 317 318 320 321 322 322 322 323 323 323 322 320 320 319 317 316 313 312
291 294 283 287 290 292 286 290 289 291 288 289 291 291 291 290 292 293 290 287 286 284 283 284 282 287 292 295 296 297 299 300 300 301 302 303 301 299 300 301 302 301 300 300 299 299 300 302 303 303 302 301 298 296 298 300 302 303 302 302 303 305 306 306 307 308 310 313 314 315 316 318 319 320 320 320 321 321 320 320 319 318 317 313 310 309
289 289 285 285 285 286 289 292 293 295 294 292 292 290 291 288 285 284 284 288 285 285 282 281 281 289 294 293 295 297 299 300 301 301 302 302 297 299 301 301 300 300 300 299 298 298 300 301 302 303 301 298 296 298 299 301 302 303 304 305 305 304 305 305 306 306 307 308 310 312 314 316 317 318 319 318 318 317 317 318 317 316 311 309 309 307
294 292 287 283 285 287 289 290 288 289 295 295 294 293 295 293 292 288 284 283 284 284 283 284 281 286 296 295 295 298 299 299 299 297 298 299 299 300 301 300 299 298 298 299 299 299 299 300 301 301 301 302 300 302 301 301 303 304 304 305 305 305 305 305 306 307 307 307 308 309 312 314 314 314 314 315 314 314 314 314 312 310 308 306 303 303
293 288 284 284 288 290 290 288 290 290 292 292 292 293 293 291 292 291 288 288 286 284 283 285 281 288 296 296 295 296 296 295 294 293 296 297 297 299 299 301 301 301 301 300 300 299 300 300 299 299 301 303 302 301 301 301 302 303 304 304 305 304 305 306 306 306 307 307 308 309 310 310 311 311 311 311 309 310 308 305 303 302 304 303 301 301
290 288 287 282 281 284 286 289 289 290 291 290 290 291 292 294 293 289 286 288 286 286 286 286 281 289 294 294 293 292 293 293 294 293 293 295 299 300 300 300 299 299 299 300 301 302 301 299 299 302 303 304 305 302 301 300 301 302 303 304 304 305 307 307 307 306 306 306 306 307 308 308 307 308 308 307 304 304 302 301 301 300 300 299 299 300
292 289 286 280 277 275 275 277 280 283 285 289 290 290 291 292 291 287 285 287 284 287 287 286 287 292 293 293 293 293 294 294 295 294 294 297 299 299 300 300 299 299 300 300 302 301 302 303 303 301 301 303 302 302 301 300 300 301 302 303 304 305 304 304 303 304 304 303 303 303 303 304 303 304 304 303 302 300 300 299 299 299 298 299 299 295
291 292 291 289 286 283 286 288 292 292 288 285 287 290 290 292 293 291 290 287 284 288 286 288 291 290 290 292 292 295 294 294 296 294 295 295 296 297 297 298 300 300 301 301 302 303 299 299 300 301 302 302 302 300 300 301 301 300 301 302 302 303 303 303 303 302 302 301 302 301 300 300 301 302 302 300 300 297 297 297 296 296 296 296 296 295
289 288 290 292 292 292 291 290 293 292 288 288 288 288 290 289 289 288 287 285 291 287 283 290 292 290 292 292 293 294 295 295 295 294 296 297 299 301 302 299 296 299 301 301 300 300 304 305 304 302 302 300 300 299 298 298 300 301 300 302 302 301 301 301 301 301 300 299 299 300 299 299 299 299 299 297 295 295 294 294 294 294 294 294 294 294
291 288 291 291 288 286 289 291 292 292 291 290 290 290 289 290 289 286 288 292 292 287 286 292 293 290 292 294 295 296 297 297 297 296 297 296 295 295 297 299 302 303 302 302 303 305 305 305 307 305 302 300 298 298 298 297 297 298 299 301 303 301 300 300 300 301 300 299 298 298 298 295 295 295 294 293 293 293 293 293 293 292 292 292 293 294
293 290 291 291 287 288 287 289 293 292 291 290 290 291 291 291 290 290 290 292 292 291 293 295 294 293 295 295 296 297 298 297 296 293 293 293 296 298 299 300 300 302 301 302 304 305 306 306 306 304 302 299 298 298 298 298 297 298 298 299 301 301 301 300 300 300 300 298 298 297 295 294 293 293 293 293 293 293 292 292 291 291 291 291 291 291
294 289 291 288 285 284 286 287 290 292 291 288 291 292 292 292 291 291 291 292 293 292 293 293 292 291 296 298 298 299 299 297 295 293 295 298 298 297 299 300 301 301 301 302 302 304 303 303 303 302 300 300 299 299 298 299 299 298 299 300 300 301 301 300 299 298 299 300 298 295 294 293 292 292 292 291 292 292 291 291 291 291 291 290 290 289
293 287 289 287 285 282 285 287 287 287 287 287 288 290 290 289 288 290 289 292 291 289 291 291 289 290 295 298 298 298 296 296 297 299 299 298 297 297 297 298 298 299 300 300 301 302 302 302 303 304 304 303 301 299 298 298 298 297 297 298 299 300 299 298 298 298 297 298 297 295 293 293 292 292 292 291 291 290 290 290 289 290 290 289 288 287
291 287 286 287 285 283 283 286 286 286 286 283 284 288 290 291 292 292 293 293 293 294 290 287 289 295 296 297 295 294 295 297 297 298 299 299 299 299 297 298 299 300 300 301 301 301 301 301 302 303 303 303 301 300 299 299 298 297 298 298 299 299 298 296 296 298 297 295 295 295 294 293 292 292 291 292 291 290 289 288 288 288 287 287 287 286
291 289 288 290 285 283 282 284 286 284 278 280 291 294 293 290 290 289 289 291 294 295 293 295 295 296 296 295 295 295 295 297 298 300 302 301 301 300 298 298 299 300 301 301 301 301 302 302 301 301 301 302 301 301 301 299 299 299 298 298 298 297 298 297 297 297 296 295 293 293 294 294 293 292 291 290 289 288 287 288 288 288 287 287 286 286
288 288 288 289 287 281 282 284 282 276 279 290 296 296 295 294 294 292 293 294 294 295 295 295 296 296 296 297 298 298 298 299 300 300 301 300 301 301 301 300 300 299 299 300 301 301 301 301 300 299 298 299 300 299 298 297 297 297 296 296 296 297 297 297 297 297 297 296 295 294 292 292 292 293 292 290 288 288 287 288 287 286 286 286 286 286
288 288 287 284 285 283 281 283 277 277 288 292 292 293 296 295 295 293 291 294 295 295 295 294 295 297 296 296 296 297 298 296 296 296 298 300 301 301 300 299 301 301 301 301 301 302 301 299 298 299 299 300 299 298 298 298 297 296 295 296 296 295 296 297 297 297 296 296 295 294 293 291 291 291 291 290 289 288 287 287 287 286 286 286 286 286
292 289 288 283 285 281 281 283 284 289 288 291 291 289 292 290 291 290 286 291 295 296 295 294 295 297 297 296 296 294 295 295 297 299 300 299 299 298 300 301 302 302 302 302 301 301 299 298 298 299 299 298 298 298 297 297 295 295 294 294 295 295 295 295 295 296 296 294 294 294 295 294 292 290 289 288 287 287 287 287 286 286 285 285 285 285
295 288 288 284 279 285 283 280 281 282 280 287 294 295 296 298 297 298 293 289 297 297 297 296 295 296 297 296 293 295 298 295 293 296 300 300 299 300 299 300 300 300 299 299 297 295 296 296 297 297 298 298 296 296 296 295 294 294 293 293 293 293 293 293 294 295 295 295 295 295 294 294 293 290 288 287 287 287 287 286 286 285 285 285 285 284
292 292 290 287 283 281 282 280 280 279 283 291 292 293 295 297 298 296 290 286 294 297 298 297 296 296 297 295 293 295 294 290 291 296 301 301 300 299 300 299 298 298 297 297 297 297 295 296 296 295 294 295 296 295 294 293 293 293 292 292 292 292 292 292 293 294 294 295 296 295 294 293 291 289 288 287 287 287 286 285 285 285 285 285 285 285
287 289 289 286 280 283 283 281 280 284 285 289 289 290 293 297 297 293 282 283 296 297 298 297 296 297 297 297 294 295 292 290 292 298 301 301 300 298 297 298 297 297 296 295 294 295 296 294 293 293 294 295 296 293 292 292 293 291 292 292 292 291 292 293 293 294 296 296 295 294 292 290 288 288 288 287 287 287 286 285 285 284 284 284 284 284
285 284 287 284 284 284 284 283 285 286 292 290 291 292 295 297 295 285 280 290 295 298 297 299 297 298 298 296 295 292 296 298 299 297 295 296 295 296 295 294 295 295 296 294 294 289 292 292 294 295 295 295 293 292 292 292 292 291 292 291 291 290 292 293 294 294 295 295 294 292 291 290 289 288 287 287 287 287 286 285 284 283 284 283 284 283
283 285 282 286 284 283 284 283 283 287 292 291 292 294 296 293 283 284 292 292 295 296 297 298 297 298 298 296 295 297 298 300 297 293 295 295 297 296 294 293 292 291 291 289 286 289 292 292 292 291 291 290 291 290 291 290 290 291 291 290 290 291 292 292 292 292 293 293 292 290 288 288 288 287 287 287 286 285 284 284 284 283 283 283 283 282
284 283 282 283 286 283 283 282 280 278 289 293 291 291 295 289 291 294 291 290 293 295 294 295 297 297 297 296 297 297 298 297 296 296 295 293 294 295 293 292 293 293 293 293 291 287 291 292 292 292 292 289 289 290 289 289 288 288 289 290 290 291 291 291 291 290 290 289 289 288 287 287 286 286 286 285 285 284 283 283 282 282 282 282 281 280
290 285 285 286 288 281 282 280 281 289 290 293 292 288 291 297 297 294 297 293 291 293 293 295 295 296 296 297 295 296 296 296 296 295 294 293 293 293 292 292 291 291 291 290 290 290 288 292 291 290 288 288 288 288 288 288 288 287 288 289 290 289 289 289 288 287 287 286 286 285 285 285 285 285 285 284 284 284 283 281 281 281 281 281 281 280
291 288 290 286 289 287 285 288 291 289 292 294 295 298 296 298 294 293 298 298 294 292 293 295 295 293 295 296 295 295 294 295 295 295 293 294 293 293 293 293 292 292 292 292 290 286 288 291 290 289 288 288 287 287 287 287 287 286 286 288 287 286 286 286 285 285 285 285 285 284 284 283 284 284 284 283 284 283 282 281 281 280 281 281 281 281
293 294 288 292 290 292 291 290 290 287 290 293 295 295 297 298 294 291 293 296 295 295 293 295 295 294 294 295 295 293 294 295 294 292 293 293 294 293 292 290 288 287 288 287 286 285 286 286 287 287 287 286 286 286 286 286 287 286 287 286 286 286 285 284 284 284 284 284 283 283 282 282 282 282 282 282 283 283 283 281 281 281 281 280 280 281
289 291 290 289 288 289 285 293 289 290 291 293 295 294 293 297 295 293 293 294 296 294 293 295 295 294 294 292 294 294 293 293 292 293 292 292 291 290 290 291 289 288 289 288 287 281 284 286 287 286 286 286 284 284 284 284 285 286 285 284 285 284 283 283 283 283 283 282 282 281 281 282 282 282 281 281 282 283 283 282 281 281 280 280 281 280
287 291 291 288 287 288 289 293 292 291 292 293 295 293 293 294 293 291 293 293 292 291 293 290 292 291 292 291 294 294 293 292 292 293 292 290 290 289 288 288 288 286 285 285 283 283 285 286 287 285 285 286 284 283 283 283 283 282 281 282 282 282 282 282 283 283 282 281 281 281 281 282 278 280 281 281 281 282 282 281 281 281 281 280 281 280
290 290 287 288 288 290 293 288 289 290 291 292 292 292 295 296 295 294 291 290 289 290 288 287 290 291 292 293 293 293 292 291 292 292 291 289 289 288 288 288 287 287 283 282 282 282 287 285 284 284 284 284 281 281 282 281 280 278 280 281 280 281 282 283 281 281 280 280 280 280 280 281 280 281 281 280 280 281 282 281 281 281 282 282 283 282
288 287 291 289 287 287 288 290 288 287 287 290 291 292 292 294 295 293 289 288 288 290 289 289 287 288 288 289 292 291 292 290 289 290 290 290 290 288 287 286 285 284 283 282 281 281 281 282 283 282 283 282 280 280 281 279 278 277 278 279 279 281 282 281 280 280 279 279 280 280 279 280 280 280 280 280 280 279 279 278 280 281 281 281 282 282
290 290 291 288 288 288 293 294 293 295 295 294 294 293 294 293 293 291 290 291 290 291 290 289 288 288 289 287 287 291 291 290 289 289 288 288 287 286 286 285 283 283 281 280 281 280 281 281 280 281 281 280 278 278 278 278 277 277 277 277 278 279 280 280 281 281 280 278 279 279 279 279 280 279 279 279 279 279 279 279 279 279 280 280 281 281
Wind_Speed
4 9 10 11 9 12 16 18 14 3 4 5 6 5 5 5 3 2 2 4 1 3 9 9 11 14 15 14 14 5 4 4 7 9 9 7 7 7 7 8 9 9 12 5 7 8 10 10 11 11 11 12 14 15 16 15 16 16 16 14 16 13 14 12 12 11 11 12 11 11 11 11 10 9 8 8 8 8 8 9 9 7 7 8 8 8
4 10 11 11 13 18 17 14 8 6 5 8 7 6 4 5 5 4 3 3 1 3 3 1 6 12 14 13 15 8 3 11 11 10 10 11 9 6 7 8 9 10 6 6 5 7 9 10 13 12 12 14 16 16 17 19 18 18 18 17 16 14 14 14 13 12 12 13 12 11 11 10 9 9 10 9 8 9 8 10 11 10 9 9 8 7
10 11 10 11 11 10 10 10 10 10 10 8 6 5 4 5 1 0 1 1 2 2 8 1 8 11 13 13 11 11 10 11 11 11 12 10 8 8 7 8 8 5 9 8 9 9 10 12 12 12 12 13 16 16 17 17 17 17 17 17 17 15 15 15 14 14 13 13 12 12 10 11 9 9 10 10 9 9 10 11 12 12 9 9 8 8
9 9 11 10 8 9 7 11 11 10 8 7 6 7 7 4 6 4 4 2 3 3 4 2 8 10 11 13 13 13 12 12 12 11 12 10 11 11 11 8 6 9 8 10 10 11 11 11 11 12 12 14 14 14 14 14 16 14 15 16 16 15 15 15 15 13 15 15 14 14 14 13 12 9 10 11 12 13 14 14 14 13 12 10 9 11
2 7 12 13 13 13 13 12 13 9 8 5 8 7 6 6 7 4 2 1 2 1 2 6 10 13 11 13 11 9 8 8 9 6 9 8 9 9 3 4 8 11 10 10 9 8 9 11 14 15 14 12 13 14 14 15 15 13 18 18 17 14 14 14 15 17 16 14 13 12 11 11 10 9 9 10 12 13 11 10 10 12 10 11 11 10
6 8 10 11 12 12 10 11 12 10 7 6 8 9 8 8 6 3 3 2 3 3 4 3 7 12 9 14 13 6 4 9 6 8 10 10 10 9 9 12 10 9 9 10 11 9 9 10 10 11 12 13 13 14 16 15 17 16 14 14 14 13 13 13 15 15 14 13 13 13 11 13 13 13 11 13 14 10 9 10 8 8 9 10 11 12
5 0 12 14 15 13 13 11 13 12 7 7 8 11 10 8 6 4 3 1 5 6 2 3 6 9 1 4 3 4 5 9 7 6 9 8 7 7 8 9 9 10 10 11 11 9 9 11 10 11 12 15 14 16 13 13 14 15 13 13 15 14 12 12 13 15 13 15 14 16 16 14 13 14 10 10 11 10 9 8 9 9 9 11 12 12
5 6 7 6 10 13 12 11 10 14 8 7 4 12 5 7 8 6 2 4 4 4 2 3 3 8 13 7 10 5 6 8 10 9 8 9 10 10 9 9 9 9 10 9 12 12 12 12 12 14 14 12 14 12 9 11 11 14 15 14 14 13 12 12 12 14 17 15 15 15 14 11 16 15 14 12 13 12 9 10 11 10 10 11 12 11
9 11 14 15 12 12 14 12 11 13 8 1 3 11 9 9 7 5 4 2 1 5 6 3 3 5 11 3 3 2 8 10 14 14 9 9 10 10 10 10 10 11 11 10 9 11 11 11 12 12 10 10 10 10 11 11 11 12 12 13 13 13 13 12 14 15 17 16 16 16 15 15 14 14 14 12 12 12 11 12 10 12 11 10 11 10
2 11 16 14 12 13 6 8 13 13 8 2 5 5 6 6 5 2 2 1 0 2 9 4 6 7 14 12 8 4 5 10 12 13 14 11 10 8 7 8 9 9 7 6 9 10 9 9 8 8 8 8 10 7 8 9 9 11 11 13 15 16 13 12 14 14 17 19 16 16 17 17 15 12 13 13 12 12 11 11 12 11 11 10 9 10
3 5 2 7 9 4 8 5 8 13 4 9 9 9 6 4 2 3 2 2 0 7 8 5 8 6 11 6 8 7 8 11 9 9 8 6 7 8 8 8 6 3 3 4 7 8 8 5 5 4 8 10 7 6 9 10 10 10 12 13 15 17 13 13 14 15 19 18 17 16 18 18 17 16 14 12 11 9 10 13 13 12 11 9 9 8
4 5 7 2 2 5 9 7 7 5 10 11 5 7 8 4 3 2 1 1 4 6 3 6 6 8 11 3 2 3 5 3 10 14 15 13 12 10 8 6 1 2 3 4 5 7 6 6 6 5 9 9 8 7 9 9 9 11 12 12 15 15 15 13 13 15 17 16 17 17 17 17 17 16 14 14 15 14 14 13 12 10 9 8 7 8
4 5 1 2 5 9 11 10 4 4 5 3 8 9 7 3 2 2 2 4 8 6 2 1 1 4 20 11 7 6 7 7 7 8 10 10 8 7 4 1 2 2 4 5 6 5 4 5 5 6 7 6 8 9 10 9 9 9 11 13 14 15 14 13 13 14 16 16 16 16 17 17 15 16 15 15 15 15 14 12 12 9 10 8 8 7
2 2 1 4 3 6 13 13 9 7 6 7 10 9 7 6 5 7 7 2 4 2 1 4 3 11 8 7 13 19 16 13 11 9 8 7 8 7 5 3 5 6 7 7 6 6 6 5 5 5 5 6 5 7 8 8 8 7 8 10 12 12 10 12 11 14 16 17 17 16 16 16 14 15 15 14 14 14 13 12 13 11 11 10 10 10
8 3 11 12 8 6 11 11 13 9 11 11 7 12 8 5 4 11 7 10 4 1 4 1 1 6 2 2 6 6 6 6 5 6 5 6 7 7 7 7 9 10 9 6 6 7 7 6 6 6 5 5 5 5 6 5 6 6 7 8 10 10 9 10 12 14 16 15 16 16 16 15 14 15 14 15 13 13 13 11 12 11 12 12 11 11
15 4 4 7 2 13 14 4 12 14 10 10 6 1 3 8 2 3 1 3 3 2 2 5 7 3 3 6 7 8 8 9 7 7 5 7 6 6 6 8 8 8 6 2 4 6 8 6 5 5 5 5 4 5 5 6 6 6 7 7 8 10 9 10 13 14 14 15 13 15 16 17 15 11 11 11 8 11 12 13 13 11 12 12 12 11
10 7 3 2 3 12 8 6 8 13 11 10 5 10 6 5 4 3 1 5 3 1 9 4 6 6 6 13 16 14 4 10 7 6 3 6 5 4 7 6 6 7 7 6 5 6 5 3 4 5 5 4 3 3 5 5 5 8 8 8 9 10 9 10 12 13 13 13 14 15 15 14 12 12 11 11 13 13 11 12 12 11 12 10 8 7
11 7 2 3 9 1 4 6 7 9 3 10 8 9 4 1 5 2 3 2 4 7 4 3 9 8 3 7 2 3 9 13 8 8 6 5 3 5 6 6 4 4 4 5 6 6 6 5 5 3 2 4 3 3 3 4 3 3 3 6 8 8 10 10 11 12 12 13 14 12 13 15 12 9 10 11 12 11 10 9 9 9 7 9 8 8
9 6 3 4 2 3 2 6 6 2 5 7 7 7 11 7 8 5 1 4 6 6 4 5 4 8 9 9 2 3 5 6 9 10 6 6 6 5 5 7 6 5 4 4 4 4 4 4 4 3 3 2 3 4 4 3 3 3 2 2 3 6 6 8 9 10 9 11 10 10 11 12 9 9 10 11 11 9 9 8 8 8 8 8 7 8
6 5 3 2 4 4 3 8 14 12 2 1 2 8 2 3 3 7 5 1 2 6 1 4 4 7 9 9 12 12 10 8 5 6 9 8 5 4 5 5 4 4 4 4 4 4 3 3 3 4 3 4 4 4 3 3 3 4 3 3 3 3 3 3 7 7 8 8 8 7 7 8 9 8 8 8 10 10 10 9 10 9 8 10 8 9
5 0 6 5 1 5 9 11 14 15 13 9 8 11 5 3 3 2 1 4 4 3 5 5 4 4 5 9 13 17 17 15 12 11 8 6 2 3 5 5 5 4 4 3 4 4 4 3 2 3 3 3 3 3 3 3 3 3 3 3 3 3 3 3 3 5 6 6 7 7 9 8 8 8 7 8 9 9 9 10 9 9 9 8 9 9
4 6 10 10 8 12 7 2 2 10 14 11 13 14 15 12 8 11 9 4 1 3 3 3 9 1 4 4 8 11 11 9 10 10 8 2 1 4 4 4 5 5 4 4 3 4 3 3 3 2 2 2 2 3 3 3 3 3 3 3 3 3 3 3 4 5 5 6 7 8 8 8 7 8 8 8 8 9 9 9 9 9 7 9 9 9
2 4 10 9 8 7 3 1 2 4 2 7 8 11 13 11 7 6 10 5 1 3 4 1 4 6 9 7 9 9 7 7 2 0 6 4 4 5 4 4 4 5 7 5 4 3 3 3 2 1 1 2 2 4 5 4 5 5 5 3 3 3 3 3 4 4 5 5 6 7 8 8 6 5 6 8 7 8 8 7 6 6 8 8 7 5
5 5 8 5 6 3 2 0 0 3 1 6 8 3 7 14 12 5 2 5 8 3 3 3 5 6 7 3 5 3 3 4 1 2 4 3 3 6 5 4 5 5 5 4 3 3 3 2 1 2 4 4 4 5 5 5 4 4 4 3 3 4 4 4 4 5 5 6 6 7 7 8 5 6 7 7 6 6 4 4 4 4 5 6 7 8
8 5 10 9 5 2 2 2 2 1 3 9 12 9 6 5 4 1 2 1 3 7 5 6 9 9 4 1 1 2 6 7 2 2 3 6 6 5 3 2 3 5 5 5 3 2 2 2 3 4 4 5 4 3 3 5 5 5 5 5 5 5 5 4 4 5 6 6 7 7 6 6 5 6 6 6 4 5 5 5 6 6 7 8 8 9
1 6 11 11 13 13 12 14 17 18 17 4 4 7 9 12 14 4 7 4 4 6 14 8 14 2 4 1 1 6 4 6 2 3 5 6 5 3 2 3 5 4 4 5 4 3 4 3 3 3 5 5 5 5 5 5 6 6 6 6 6 6 5 5 4 5 5 4 5 5 5 5 5 6 6 6 5 6 7 7 7 8 8 9 10 8
3 5 9 11 13 15 13 3 10 16 11 11 14 14 14 12 12 10 4 4 12 9 11 17 10 5 1 7 3 7 4 8 3 5 4 6 6 6 5 5 5 4 3 3 4 3 2 4 6 6 6 6 5 4 4 4 6 7 7 7 6 6 5 5 5 5 5 5 5 5 5 5 6 6 5 5 5 4 5 5 5 6 7 5 7 9
3 8 14 15 17 3 2 6 8 15 12 12 12 13 15 14 13 15 13 18 11 5 12 12 4 12 12 8 8 5 6 5 4 3 5 4 4 4 3 3 5 5 4 2 4 6 6 5 3 5 6 5 4 3 3 4 5 6 8 8 7 5 5 5 5 5 5 4 5 5 5 6 4 4 4 3 3 4 3 3 4 4 4 6 7 8
10 13 17 12 4 3 3 6 14 16 17 17 21 17 17 18 15 16 20 23 9 12 16 3 12 17 12 14 9 7 5 8 5 5 5 2 2 3 3 4 4 6 4 4 7 6 5 6 6 6 4 4 3 5 6 5 5 6 7 7 8 6 6 5 5 6 5 5 6 6 5 3 2 2 3 3 3 4 4 4 4 5 5 6 6 6
8 8 12 11 7 4 3 3 9 14 10 14 18 20 20 18 19 21 23 21 15 15 18 3 9 14 11 13 12 8 6 4 1 2 2 1 4 5 3 6 7 7 7 6 7 4 5 6 7 4 2 3 5 6 6 6 7 7 8 8 8 7 6 5 7 6 6 6 6 5 4 4 4 3 3 4 5 5 5 5 6 6 6 6 5 6
11 8 14 7 6 1 2 1 2 9 13 15 16 15 14 15 19 22 22 17 12 16 19 14 14 18 13 11 7 7 6 2 3 7 7 5 5 6 8 8 9 10 7 7 7 8 5 5 4 3 5 6 7 7 7 6 6 6 6 7 9 9 7 7 7 6 6 7 6 5 4 4 4 5 4 4 5 4 5 6 6 6 6 7 8 7
13 0 5 6 7 2 2 6 5 5 3 5 6 11 18 20 21 21 15 11 11 20 24 21 16 20 6 17 11 7 2 6 14 11 8 9 9 8 8 9 9 10 10 9 8 6 7 7 6 8 9 7 6 7 7 7 6 6 8 8 10 9 7 7 7 8 7 5 5 5 5 4 4 5 5 5 6 6 5 5 5 5 6 6 6 5
10 4 7 9 7 6 2 4 10 7 6 4 12 20 27 23 11 5 11 18 24 27 18 14 23 12 10 10 9 6 11 13 12 9 9 9 10 9 10 11 11 10 10 10 9 8 7 8 9 8 7 4 5 6 8 7 6 8 8 8 9 8 8 8 7 7 7 6 5 5 6 6 6 5 5 6 6 6 6 5 6 5 5 6 5 6
9 10 6 8 9 4 4 6 5 6 10 13 21 19 12 13 16 17 19 24 24 17 18 20 13 9 10 10 13 12 13 13 12 11 8 7 8 11 12 10 11 11 9 9 8 7 7 6 6 5 5 4 4 5 3 6 7 6 6 6 7 9 8 8 7 7 7 6 6 6 6 7 7 7 6 6 5 5 5 5 6 5 4 4 5 7
14 10 5 6 5 5 5 5 5 12 15 21 3 11 18 24 24 25 22 23 24 25 24 18 13 6 11 11 12 13 11 10 10 11 11 14 11 8 10 10 12 13 12 9 9 10 10 7 4 2 4 6 5 3 3 4 5 4 5 7 9 10 10 9 8 7 6 7 7 7 6 6 7 8 8 8 6 5 5 5 4 5 4 5 6 7
16 15 6 1 4 4 2 7 9 16 13 5 8 12 16 21 21 22 24 25 21 13 15 20 24 16 11 6 2 2 1 3 6 12 17 14 8 11 13 15 17 14 11 10 12 10 5 4 7 7 7 3 3 3 4 5 5 6 5 6 6 8 9 9 8 8 7 6 7 7 8 8 7 6 7 6 6 7 7 7 6 7 5 5 3 2
21 11 8 6 2 12 13 15 18 4 7 7 6 8 16 18 20 20 18 17 13 15 19 24 25 14 11 8 5 4 3 1 8 15 15 14 16 15 18 15 14 10 11 9 6 5 3 4 5 5 4 3 4 3 4 3 4 5 5 5 6 8 8 8 8 8 8 7 7 8 9 9 9 8 7 5 6 7 7 7 6 3 4 4 3 4
13 18 8 12 3 1 10 8 5 8 12 16 23 8 9 4 7 5 5 19 15 20 20 18 19 16 15 8 8 8 5 5 12 18 17 13 16 17 17 10 9 9 6 3 2 3 3 4 4 3 4 4 3 3 2 4 5 5 5 6 6 8 8 8 9 8 7 7 8 9 8 8 8 6 6 6 7 7 6 3 2 4 5 6 7 6
2 7 13 16 7 3 5 11 9 14 20 14 8 13 15 14 14 13 5 16 25 19 16 21 21 12 12 12 11 12 8 8 16 17 16 9 14 10 9 11 12 11 9 7 7 7 6 5 4 3 3 3 5 5 5 6 7 6 6 5 5 6 7 8 8 7 8 8 8 8 8 8 6 6 7 8 7 6 7 6 6 4 4 2 3 4
9 9 8 9 7 12 13 11 11 7 14 5 9 9 18 19 21 13 2 21 6 15 15 15 17 14 13 17 16 13 15 16 20 9 6 10 8 9 12 12 11 10 7 6 6 5 2 3 4 3 4 6 5 4 6 6 6 4 5 5 5 6 8 10 10 9 8 8 9 7 7 5 6 6 7 8 7 6 5 3 4 5 4 5 4 6
10 5 12 17 13 13 15 4 5 7 10 5 9 13 15 21 20 14 22 15 8 15 16 19 19 21 23 19 15 14 16 20 10 5 6 6 5 5 4 1 1 2 5 5 3 3 3 2 2 2 3 2 3 4 5 5 5 5 5 5 6 7 7 5 6 8 9 9 7 7 7 6 6 7 6 5 6 5 5 5 5 5 5 5 3 4
8 7 1 4 14 12 12 12 10 11 4 11 11 16 20 15 11 23 4 5 8 6 5 11 15 14 14 15 15 15 19 23 9 6 6 7 6 4 2 3 3 3 3 3 4 3 3 3 2 2 1 1 3 4 5 3 4 5 5 6 8 5 3 4 6 6 7 8 8 5 5 5 4 4 4 3 4 5 5 3 4 6 7 5 5 7
18 14 14 14 9 3 3 11 3 11 12 24 15 9 17 16 2 4 4 2 2 9 10 9 11 12 15 16 20 22 22 8 9 10 7 5 5 4 4 5 6 6 6 4 3 2 4 5 4 3 3 2 3 4 3 4 4 3 3 6 3 2 3 5 5 6 5 4 6 5 6 5 6 6 5 6 5 7 5 5 5 5 4 5 6 8
13 9 8 8 10 12 15 14 14 6 10 23 21 15 12 2 1 4 5 4 1 4 9 8 9 11 16 17 18 17 14 12 10 7 5 5 4 2 2 3 3 3 3 2 3 5 3 5 4 4 2 2 2 2 3 5 5 3 4 3 1 2 2 3 3 3 3 4 5 5 5 5 5 5 5 5 5 5 6 6 5 5 6 6 7 7
15 18 19 19 18 15 16 20 5 7 15 14 17 7 16 15 7 7 4 7 9 5 6 6 11 8 11 14 13 15 13 15 14 7 8 9 9 9 8 7 6 6 6 5 4 3 2 5 8 5 3 2 2 3 3 3 4 4 4 0 1 2 2 2 2 3 3 4 4 4 4 4 4 4 4 5 6 6 6 7 7 7 5 6 7 6
17 13 5 3 8 11 7 1 4 1 9 21 7 0 15 19 8 3 3 5 4 8 12 10 10 13 13 12 13 10 13 12 10 6 7 6 8 7 5 5 3 2 2 3 4 3 3 4 4 5 5 2 1 1 1 1 2 4 1 1 1 2 2 4 4 4 4 2 2 3 5 6 5 4 4 5 4 5 5 7 7 6 6 7 7 7
4 9 6 7 2 12 15 17 10 8 6 10 12 4 4 10 10 6 4 6 6 9 13 5 10 15 15 11 12 13 13 9 11 11 7 4 4 5 6 7 5 4 6 4 5 6 6 5 6 5 5 4 1 1 1 2 1 1 1 1 1 3 4 5 4 4 3 2 2 3 4 5 4 4 4 4 4 4 4 5 6 6 7 8 7 7
5 7 12 6 8 17 21 14 11 9 13 17 12 8 5 6 6 7 6 1 1 1 2 2 4 6 7 10 12 11 10 10 11 10 7 5 4 4 4 5 6 5 3 2 3 3 3 4 5 6 5 4 3 2 2 2 2 1 1 1 3 4 4 4 4 3 3 3 3 3 3 3 5 5 4 5 5 5 5 5 6 7 8 9 9 9
5 13 13 11 13 15 13 4 10 6 10 14 10 4 4 9 11 11 9 4 2 6 5 2 2 4 10 11 9 7 8 8 6 5 8 6 6 5 5 5 5 5 5 4 3 3 3 4 5 5 5 4 2 2 3 3 2 2 2 2 3 4 5 3 3 2 3 2 2 2 2 2 3 3 3 4 4 4 4 6 7 8 6 7 5 5
10 14 14 12 11 14 18 18 17 12 11 12 11 12 11 10 12 10 6 5 6 9 7 7 4 2 3 2 7 8 8 8 6 7 9 9 8 7 6 6 5 5 5 3 3 3 5 4 5 5 5 3 2 3 4 3 3 2 2 2 2 3 4 4 3 3 2 2 2 2 2 2 2 2 2 3 4 4 4 2 3 4 5 6 7 7
17 19 14 12 17 19 25 12 15 13 5 7 14 15 14 13 12 12 12 11 9 6 8 10 9 5 5 1 0 6 8 11 10 7 9 5 4 4 5 7 7 5 4 4 6 5 4 5 5 6 6 4 2 4 4 4 2 2 2 2 2 2 4 5 3 2 2 2 2 3 3 2 2 3 2 3 3 3 4 4 4 8 9 5 3 6
Wind_Direction
151 162 187 187 167 172 179 191 202 112 182 162 166 168 200 207 200 138 168 123 239 267 246 244 242 253 260 259 264 255 133 225 251 252 246 234 228 223 223 223 223 224 235 223 199 196 201 206 209 211 214 219 221 223 222 221 220 219 219 217 222 219 218 218 216 214 213 215 219 222 219 219 213 207 206 208 213 219 221 223 226 217 212 210 205 203
205 189 198 188 180 184 189 190 172 143 159 177 173 188 181 204 229 168 133 110 217 244 257 136 260 258 261 259 263 248 207 255 242 241 244 245 232 229 231 234 225 231 247 234 218 205 204 205 205 204 208 213 216 217 218 220 219 219 218 218 219 219 218 217 214 212 212 213 214 213 218 219 216 205 202 210 210 215 217 219 225 224 210 208 207 201
197 208 181 177 178 182 178 172 175 184 186 184 201 181 178 206 290 54 130 147 157 196 270 196 267 262 263 265 257 258 249 251 250 240 247 251 241 230 225 233 235 228 243 240 232 210 207 205 203 202 207 208 213 213 213 217 217 218 221 221 221 219 216 216 215 214 213 213 214 212 216 214 222 221 216 211 209 212 217 216 221 226 216 204 209 209
186 205 177 158 152 146 159 179 184 183 188 184 186 183 208 128 168 213 146 123 157 261 308 327 292 274 265 263 252 255 251 248 242 239 245 239 248 245 233 223 221 229 236 240 224 212 207 202 201 203 207 209 207 213 214 210 214 215 220 219 218 219 217 218 217 211 217 215 215 218 225 225 222 222 219 220 226 228 227 228 226 226 227 218 211 218
135 144 160 167 171 170 173 183 182 177 189 198 203 205 193 155 204 269 98 313 163 140 279 280 274 270 239 248 253 220 227 246 244 239 247 241 240 254 309 288 234 235 226 237 236 213 198 199 205 205 208 202 204 208 210 208 208 211 214 215 215 216 214 212 213 212 215 215 215 220 223 228 226 223 220 223 226 228 227 226 223 225 220 224 226 215
147 155 137 155 168 174 158 175 189 179 197 194 225 217 214 182 176 136 75 289 244 218 74 358 286 267 225 217 236 240 179 236 220 224 237 238 226 220 237 242 237 233 241 242 244 229 203 209 213 212 208 204 209 210 212 207 208 210 214 213 212 212 213 212 209 208 211 215 214 214 216 216 217 222 211 214 221 219 216 213 208 201 210 220 225 228
162 147 166 164 168 169 177 191 184 186 202 187 208 203 214 195 180 151 124 186 243 249 125 333 250 279 57 264 238 216 250 260 262 228 248 251 240 216 222 232 228 225 233 233 249 247 228 219 212 212 209 211 212 218 211 209 214 212 213 210 209 212 215 213 211 204 209 217 216 218 218 214 212 216 218 213 220 221 216 202 205 204 206 222 225 223
131 149 155 144 148 168 183 195 185 192 187 213 102 172 162 169 183 188 167 220 282 355 292 140 258 281 287 259 231 202 231 259 264 257 242 249 248 240 226 229 230 230 228 224 230 235 229 225 211 217 212 207 214 213 202 210 209 209 212 211 213 216 217 214 208 204 214 218 219 219 217 218 224 221 223 216 221 221 218 212 206 211 216 214 222 223
144 150 171 163 166 179 197 195 154 194 201 190 138 154 179 184 189 144 206 188 10 3 273 157 118 279 260 271 121 151 251 242 252 255 241 233 241 240 237 233 231 235 238 232 236 236 229 221 223 225 219 216 217 208 206 211 211 213 216 217 218 218 216 215 211 215 215 220 223 221 222 224 225 227 227 225 223 222 212 213 211 214 216 209 210 217
286 171 175 168 175 198 154 148 163 187 182 38 96 83 83 78 70 157 169 134 25 249 256 202 164 256 275 269 242 163 224 233 233 240 240 225 224 219 229 233 231 234 237 242 252 260 256 245 236 230 240 231 220 210 214 218 210 209 210 213 214 218 215 212 205 209 216 219 219 222 223 226 226 221 226 226 226 220 209 214 210 212 213 207 205 207
64 348 295 176 200 154 104 69 162 180 77 119 136 119 110 95 107 71 62 104 90 248 249 203 176 234 290 253 246 194 228 222 234 246 258 250 250 243 229 232 232 235 251 246 250 257 264 282 283 270 244 243 234 204 215 220 216 212 211 214 214 218 216 212 208 209 217 217 216 222 224 225 227 224 223 221 220 210 205 211 213 207 208 201 203 202
96 133 162 199 13 112 111 100 24 67 144 144 139 135 122 92 130 159 47 66 227 254 129 150 193 200 234 194 291 257 15 285 239 236 235 232 229 228 224 219 204 216 237 251 257 263 258 261 245 235 249 245 237 213 216 219 214 213 213 212 216 217 213 209 204 209 217 215 216 221 223 224 225 225 222 218 217 211 207 206 209 204 196 196 195 195
130 170 80 77 291 153 146 131 138 122 183 167 146 154 155 143 137 209 153 222 223 242 105 71 107 264 237 253 310 285 267 261 242 248 251 248 243 244 251 219 228 242 237 237 245 247 240 242 241 231 245 243 230 224 220 219 217 218 219 215 216 219 210 207 202 212 217 216 216 217 220 223 222 223 222 221 220 218 215 210 209 194 200 195 197 198
80 90 257 156 133 249 167 167 155 165 190 173 164 166 155 156 175 224 199 250 272 144 200 83 94 263 310 292 223 250 247 234 238 232 245 259 263 272 285 294 273 248 249 249 241 244 242 235 248 251 257 254 248 235 228 223 219 221 223 224 224 228 215 208 206 215 219 218 218 218 219 220 219 222 222 223 223 220 217 212 212 199 199 198 198 199
143 204 230 171 194 173 200 197 165 147 155 190 177 185 201 181 183 202 182 195 205 185 127 235 125 252 119 80 1 319 323 323 298 271 261 262 270 282 290 286 273 267 253 244 267 271 274 272 263 261 252 253 251 245 234 224 221 224 227 224 228 229 222 210 213 219 222 221 220 220 220 221 220 223 222 225 222 219 213 210 212 208 205 204 203 204
188 137 15 152 331 156 188 146 152 147 165 183 186 32 237 225 6 232 33 215 157 165 175 179 221 342 249 345 282 243 263 267 245 255 237 266 253 243 260 255 259 265 277 192 239 251 249 248 262 259 251 244 246 245 234 220 205 207 218 219 224 225 226 222 221 224 224 224 223 223 223 223 223 222 222 223 210 217 217 214 210 205 204 207 206 205
173 195 49 53 87 182 168 124 171 160 173 172 120 207 197 9 111 103 97 40 47 1 248 149 264 247 275 274 260 263 195 248 240 241 240 252 243 235 259 259 243 252 268 271 248 247 256 247 238 242 253 251 241 241 234 227 211 205 201 205 211 214 217 219 223 227 226 227 226 226 226 226 224 220 216 220 219 214 213 211 211 209 205 205 199 186
177 145 354 48 161 286 8 180 158 197 25 123 214 192 102 54 6 227 208 108 213 230 244 134 242 263 249 286 82 256 251 263 256 237 220 238 235 239 239 250 243 231 249 272 269 259 252 249 247 239 249 273 285 271 257 245 255 254 226 208 208 206 209 213 221 225 225 225 227 227 225 226 224 221 219 218 219 215 208 206 205 206 193 195 191 179
119 98 163 340 53 99 54 157 166 273 304 205 195 133 172 192 211 198 174 194 188 227 267 211 240 257 229 226 209 187 219 239 232 241 207 221 209 234 260 262 260 280 289 273 269 261 248 227 217 212 218 217 254 257 261 261 227 227 236 254 243 224 215 215 220 223 226 227 227 227 226 224 221 219 220 218 220 217 209 200 199 198 195 183 173 168
187 127 117 18 169 150 175 194 189 185 187 29 48 195 356 354 227 163 210 352 169 228 179 251 116 257 176 219 205 235 226 242 238 225 235 228 217 221 239 256 255 253 262 271 281 280 270 245 207 188 182 183 196 210 220 222 219 215 212 210 221 241 242 222 222 224 228 229 232 231 227 222 219 214 212 210 211 210 207 197 197 197 192 187 174 179
140 132 141 131 239 165 184 208 203 177 168 179 192 192 186 221 348 333 2 206 207 216 211 277 264 231 183 196 197 219 235 241 239 249 257 272 99 207 248 270 281 278 270 265 275 281 281 260 219 190 187 178 186 202 205 208 220 221 212 219 223 227 223 229 239 236 238 236 236 233 227 220 213 211 209 210 210 210 206 206 198 197 193 171 184 173
153 192 145 143 161 194 201 65 1 179 187 185 188 195 191 172 167 178 214 103 222 207 220 198 253 179 168 129 200 223 232 242 237 236 250 278 110 249 256 255 267 279 268 266 273 270 267 258 235 213 170 191 204 201 198 195 208 214 214 217 216 224 237 241 234 229 229 229 232 232 231 226 215 212 209 208 207 210 206 203 198 191 172 182 182 175
96 76 117 161 183 176 80 28 352 340 315 217 205 212 198 203 202 200 212 184 124 229 48 359 328 255 153 177 200 215 223 234 242 79 250 220 207 243 255 263 270 264 273 280 278 272 268 279 289 297 266 219 205 207 204 202 204 204 208 211 218 229 246 248 255 251 242 238 235 233 234 233 221 207 215 214 214 214 209 206 192 173 173 171 161 167
111 124 97 67 61 356 50 27 2 8 181 231 252 251 205 206 198 218 323 125 189 135 215 233 255 268 149 138 206 239 317 313 355 311 298 323 283 261 258 261 262 261 245 242 248 249 241 250 275 262 235 222 212 207 209 214 210 208 207 204 209 222 229 227 241 244 241 241 239 237 233 229 218 214 210 214 211 209 194 165 154 152 160 155 154 161
158 206 137 130 129 186 224 175 191 172 206 221 215 182 215 218 196 142 74 20 229 202 185 204 248 259 148 60 203 255 250 264 262 174 215 258 255 248 255 271 274 281 296 291 268 243 237 234 228 225 222 226 218 202 198 210 209 206 208 201 206 213 210 213 227 230 233 236 235 229 223 215 189 209 212 212 196 190 164 164 156 159 159 158 172 179
60 155 155 159 158 172 187 194 195 196 197 160 40 115 194 198 191 140 227 201 252 195 184 206 238 198 81 77 275 242 270 280 212 173 223 249 290 299 330 281 279 270 269 286 281 258 233 224 227 235 226 221 216 203 194 195 205 208 211 209 209 213 203 205 195 205 208 199 184 201 211 211 206 211 208 197 189 181 177 170 172 173 175 174 169 164
151 155 199 187 185 195 201 79 61 86 110 184 196 190 191 204 202 212 236 225 217 213 188 221 210 35 116 171 232 229 200 244 210 165 199 218 232 240 247 260 262 266 266 260 267 267 298 247 236 234 232 229 220 205 197 189 198 211 213 212 210 212 206 201 189 196 193 171 209 187 201 185 200 204 197 194 187 174 170 176 173 170 170 169 161 161
129 187 203 203 210 238 35 138 158 133 164 190 163 189 193 188 196 194 200 218 201 81 237 232 191 259 226 163 203 200 206 220 231 183 264 229 226 218 214 270 281 269 248 247 252 238 219 227 232 230 230 226 227 210 216 212 213 208 211 214 208 205 201 196 192 188 190 146 172 191 190 213 211 200 191 157 140 148 150 148 153 155 142 149 157 167
170 199 193 194 159 65 356 135 155 160 176 176 184 186 183 193 188 198 217 229 153 209 236 175 168 228 228 178 194 216 199 215 221 196 213 59 10 290 256 255 269 280 288 268 253 233 207 221 209 209 214 221 206 223 217 212 215 216 223 221 212 204 204 192 193 194 194 188 182 196 199 155 158 131 107 134 138 145 150 152 148 141 146 157 158 163
153 221 176 179 161 106 56 205 176 166 175 176 190 189 191 185 196 207 223 220 196 227 240 230 198 240 220 194 190 208 220 249 304 53 58 191 227 220 225 240 247 255 262 260 263 244 214 230 235 238 205 204 210 215 214 213 213 209 210 214 211 207 203 182 200 198 195 193 200 179 169 163 148 140 133 143 156 160 155 153 154 155 157 159 155 148
179 186 155 150 151 178 10 54 296 183 168 186 195 189 180 188 206 214 222 221 216 259 263 263 268 266 230 180 206 207 222 141 214 216 226 209 186 211 218 219 232 245 254 254 250 247 245 241 246 245 238 223 210 209 212 216 211 205 202 209 207 205 196 194 199 199 199 204 192 168 163 159 157 149 160 157 143 147 153 154 156 158 154 153 154 151
200 147 122 150 181 217 225 144 153 92 101 172 184 195 192 197 211 217 222 209 200 230 236 242 253 252 188 151 182 175 121 260 257 261 249 246 234 225 222 230 234 237 238 241 244 248 245 246 251 251 246 228 212 208 210 210 207 196 207 203 208 203 185 193 196 194 196 201 178 172 166 164 154 156 163 161 163 161 159 148 154 160 157 153 149 129
182 136 165 172 187 192 117 161 128 128 98 200 216 208 204 204 195 183 222 215 212 220 224 220 230 236 109 145 138 168 190 215 235 235 238 238 243 231 221 224 231 236 234 228 227 230 241 247 242 244 251 234 217 208 214 201 190 207 201 196 206 194 189 192 192 193 191 178 177 173 173 165 168 170 166 181 170 158 152 158 155 154 154 160 152 144
155 166 173 165 195 136 137 146 137 127 208 220 218 205 168 171 195 209 217 217 221 215 225 223 228 91 136 143 173 183 198 206 211 227 221 231 226 227 237 238 239 242 243 239 238 237 234 227 227 227 239 253 245 228 213 197 207 202 189 186 188 195 196 193 195 193 187 177 176 176 177 174 173 176 177 159 154 156 160 167 173 170 165 146 150 162
171 166 170 175 175 147 170 134 144 211 224 236 115 125 181 200 202 208 220 217 219 215 227 241 257 227 146 178 185 186 195 203 217 241 237 224 220 238 241 239 235 234 236 245 241 229 226 217 229 268 259 246 233 220 195 211 205 184 178 182 190 197 194 196 195 194 187 183 179 176 175 176 179 179 173 172 168 167 175 179 169 165 164 164 168 164
171 171 157 79 120 60 147 168 203 226 229 72 126 172 184 202 209 210 230 231 224 218 223 244 241 226 140 187 112 13 243 322 314 262 243 238 184 222 225 238 242 245 242 235 241 248 216 171 199 205 222 231 203 210 205 206 180 185 190 180 191 195 199 196 198 197 186 186 182 179 180 179 183 181 176 174 174 176 181 180 177 174 161 160 160 138
168 159 170 152 193 173 183 187 213 7 351 233 215 210 188 196 201 198 222 236 208 214 209 225 235 215 166 165 149 114 161 216 259 256 232 221 231 221 225 237 243 244 240 241 223 233 156 185 182 199 188 182 198 189 210 182 166 178 168 179 197 198 199 197 200 198 189 186 183 188 189 193 191 184 177 177 179 186 185 181 174 157 160 150 156 154
181 167 169 153 234 173 174 194 229 258 263 243 223 205 183 191 107 142 248 274 231 211 210 221 235 222 211 146 150 149 137 245 256 258 239 201 220 228 233 244 263 254 231 185 166 192 178 187 191 177 185 185 189 197 164 167 166 171 178 185 187 196 200 201 205 198 193 192 189 195 195 195 183 181 181 178 191 191 189 170 161 163 171 167 161 165
31 179 176 171 168 118 169 197 204 213 229 240 123 160 158 122 125 119 176 257 249 208 195 203 222 192 168 159 167 162 179 213 241 245 250 181 225 218 220 215 223 233 224 206 202 204 202 195 187 169 158 173 193 192 177 170 166 172 186 183 182 197 204 210 207 196 194 195 195 194 191 192 188 183 180 186 191 185 181 178 176 160 164 154 142 150
177 178 167 186 163 189 181 196 214 204 242 210 159 137 150 139 124 135 164 247 281 157 193 183 204 179 184 183 174 177 190 220 235 249 107 173 194 191 202 216 218 211 210 189 210 216 130 118 129 144 170 195 204 146 163 161 171 183 180 179 180 195 208 209 206 202 201 201 198 193 190 186 185 188 182 188 184 178 179 148 147 156 160 164 167 162
182 182 193 190 189 192 191 221 258 262 243 154 172 159 133 142 140 152 215 228 148 160 182 182 193 196 197 191 174 195 211 219 221 99 118 126 147 206 197 18 209 167 189 178 169 128 140 142 164 160 185 193 152 155 156 161 160 182 191 181 192 216 214 194 181 191 195 196 190 187 195 195 191 189 191 187 185 169 164 157 151 147 158 157 156 151
179 176 314 210 200 189 193 202 224 256 219 143 173 164 155 133 172 209 192 91 130 175 160 184 194 195 185 179 189 209 216 221 181 95 128 158 157 166 94 132 113 85 61 69 76 93 111 124 132 120 106 113 139 145 155 159 177 187 184 189 219 215 172 172 176 174 175 182 188 185 180 184 177 181 174 160 143 129 146 149 137 159 167 162 158 160
180 177 187 194 181 94 109 209 210 250 233 147 142 179 187 179 214 102 106 356 156 159 169 186 181 186 177 194 202 210 225 220 219 214 181 163 173 148 158 158 169 163 160 151 139 129 151 137 154 152 132 128 133 152 159 161 179 185 189 219 228 182 179 184 177 171 172 171 181 177 177 177 175 166 146 145 151 158 146 145 150 156 151 160 152 157
164 190 180 208 183 175 189 199 213 214 73 142 149 174 219 308 74 194 119 159 316 172 174 168 197 182 190 194 199 217 227 232 235 220 177 181 208 130 137 147 103 110 113 89 99 139 154 130 135 137 121 131 146 160 166 170 176 179 203 228 185 164 165 167 166 158 151 160 163 153 163 165 157 146 148 152 148 148 144 152 149 151 169 166 167 172
180 200 188 195 187 193 195 206 138 151 148 154 165 168 180 211 186 232 202 174 161 199 215 163 191 186 186 190 195 203 215 219 224 195 176 200 178 194 194 177 172 170 170 161 145 144 159 145 146 138 132 150 162 175 175 182 172 174 199 239 137 160 148 127 118 125 155 168 165 164 147 139 158 152 153 155 159 159 160 157 156 167 173 167 182 182
197 191 54 30 218 237 287 45 119 89 184 177 169 145 180 200 192 160 223 178 210 162 171 181 188 185 188 189 186 201 211 211 186 175 195 189 183 180 149 126 128 137 117 111 113 139 118 100 115 134 138 148 169 158 152 157 163 166 209 115 154 142 127 131 140 157 157 159 159 150 140 140 143 147 150 157 172 175 168 164 173 177 173 181 192 190
217 184 184 203 125 169 245 216 179 165 186 218 194 201 282 223 190 169 197 233 203 170 193 236 184 182 181 157 183 190 195 172 181 190 153 148 150 149 162 154 145 159 163 169 148 134 144 145 143 154 150 136 113 116 96 116 87 66 61 90 130 124 130 142 147 144 140 153 153 138 156 161 165 161 154 170 170 181 178 174 180 180 178 187 191 191
234 184 197 186 171 197 227 213 167 166 186 205 202 190 186 182 176 217 221 236 27 344 177 121 110 113 111 167 189 185 176 164 176 175 152 153 149 149 156 158 154 147 138 95 131 163 137 151 146 142 138 127 118 95 96 96 98 82 78 114 119 113 115 127 152 159 158 151 160 166 174 185 159 159 166 176 178 179 183 184 190 195 194 190 190 187
111 129 205 170 206 220 237 36 168 128 211 216 217 264 226 187 187 214 202 166 172 160 143 67 347 180 172 185 158 149 153 173 168 131 134 145 152 164 167 160 156 138 134 147 162 171 156 144 130 128 116 97 87 94 101 92 89 76 91 106 117 123 130 144 128 102 100 140 148 171 169 185 165 188 179 174 189 203 194 188 193 205 219 217 211 199
124 185 195 183 219 225 218 207 150 161 209 207 205 202 219 221 203 191 149 166 175 174 165 134 85 74 132 100 156 152 156 149 157 147 146 159 158 152 145 145 139 132 132 104 111 114 96 98 123 126 116 108 106 108 101 96 77 67 65 89 106 120 140 133 129 131 147 159 167 156 174 188 184 190 192 183 193 202 229 269 251 242 221 218 214 236
187 193 177 192 201 223 224 192 163 201 211 168 195 205 209 205 191 183 196 196 197 172 159 143 138 129 164 131 340 170 154 150 159 143 120 134 141 137 138 139 136 136 126 134 120 101 114 125 133 126 121 122 126 103 109 101 86 82 67 74 102 127 125 135 149 161 153 166 190 176 184 181 184 187 197 200 199 203 211 219 220 232 243 261 198 197